Weather History for Coffeyville, KS

Change the Weather History Date:

Friday, March 7, 2014

  Actual Average Record
Temperature  
Mean Temperature 44 °F -  
Max Temperature 59 °F 50 °F 75 °F (2006)
Min Temperature 30 °F 29 °F 19 °F (2008)
Degree Days  
Heating Degree Days 20    
Moisture  
Dew Point 33 °F    
Average Humidity 66    
Maximum Humidity 92    
Minimum Humidity 39    
Precipitation  
Precipitation 0.00 in - - ()
Sea Level Pressure  
Sea Level Pressure 29.91 in    
Wind  
Wind Speed 9 mph (SSE)    
Max Wind Speed 23 mph    
Max Gust Speed 31 mph    
Visibility 8 miles    
Events      
Averages and records for this station are not official NWS values.
T = Trace of Precipitation, MM = Missing Value Source: NWS Daily Summary

Daily Weather History Graph

Daily Weather History Graph

Search for Another Location

Airport:

Trip Planner

Search our weather history database for the weather conditions in past years. The results will help you decide how hot, cold, wet, or windy it might be!

Date:

Astronomy

Mar. 07, 2014 Rise Set
Actual Time 6:44 AM CST 6:22 PM CST
Civil Twilight 6:18 AM CST 6:48 PM CST
Nautical Twilight 5:48 AM CST 7:18 PM CST
Astronomical Twilight 5:18 AM CST 7:48 PM CST
Moon 10:47 AM CST (3/7) 12:19 AM CST (3/7)
Length of Visible Light 12h 29m
Length of Day
11h 37m
Waxing Crescent, 42% of the Moon is Illuminated
Mar 7
Waxing Crescent
Mar 8
First Quarter
Mar 16
Full
Mar 23
Last Quarter
Mar 30
New

Hourly Weather History & Observations

Time (CST) Temp. Windchill Dew Point Humidity Pressure Visibility Wind Dir Wind Speed Gust Speed Precip Events Conditions
12:52 AM 34.0 °F 28.0 °F 30.0 °F 85% 29.99 in 6.0 mi SSE 6.9 mph - N/A   Clear
1:52 AM 34.0 °F 28.8 °F 30.0 °F 85% 29.98 in 6.0 mi South 5.8 mph - N/A   Clear
2:52 AM 34.0 °F 29.8 °F 30.0 °F 85% 29.97 in 6.0 mi SE 4.6 mph - N/A   Clear
3:52 AM 30.9 °F 25.2 °F 28.9 °F 92% 29.96 in 5.0 mi SE 5.8 mph - N/A   Clear
4:52 AM 32.0 °F 25.6 °F 28.9 °F 88% 29.96 in 5.0 mi South 6.9 mph - N/A   Clear
5:52 AM 33.1 °F 26.1 °F 30.0 °F 89% 29.95 in 5.0 mi SSE 8.1 mph - N/A   Clear
6:52 AM 35.1 °F 28.6 °F 32.0 °F 89% 29.95 in 4.0 mi South 8.1 mph - N/A   Clear
7:52 AM 37.0 °F 31.6 °F 33.1 °F 86% 29.95 in 4.0 mi SSE 6.9 mph - N/A   Clear
8:52 AM 43.0 °F 35.7 °F 36.0 °F 76% 29.93 in 7.0 mi South 15.0 mph - N/A   Clear
9:52 AM 48.9 °F - 36.0 °F 61% 29.91 in 10.0 mi South 23.0 mph 31.1 mph N/A   Clear
10:52 AM 55.0 °F - 34.0 °F 45% 29.90 in 10.0 mi SSW 18.4 mph 28.8 mph N/A   Clear
11:52 AM 55.0 °F - 35.1 °F 47% 29.90 in 10.0 mi South 17.3 mph - N/A   Clear
12:52 PM 57.9 °F - 35.1 °F 42% 29.86 in 10.0 mi SSE 18.4 mph 25.3 mph N/A   Clear
1:52 PM 59.0 °F - 34.0 °F 39% 29.85 in 10.0 mi South 19.6 mph 25.3 mph N/A   Clear
2:52 PM 57.9 °F - 35.1 °F 42% 29.84 in 10.0 mi South 12.7 mph - N/A   Clear
3:52 PM 57.0 °F - 32.0 °F 39% 29.82 in 10.0 mi South 13.8 mph 23.0 mph N/A   Mostly Cloudy
4:52 PM 57.0 °F - 34.0 °F 42% 29.83 in 10.0 mi SSE 13.8 mph - N/A   Mostly Cloudy
5:52 PM 55.9 °F - 32.0 °F 40% 29.85 in 10.0 mi South 8.1 mph - N/A   Mostly Cloudy
6:52 PM 54.0 °F - 32.0 °F 43% 29.87 in 10.0 mi Calm Calm - N/A   Clear
7:52 PM 45.0 °F - 33.1 °F 63% 29.90 in 10.0 mi Calm Calm - N/A   Clear
8:52 PM 41.0 °F 38.0 °F 33.1 °F 73% 29.91 in 10.0 mi ENE 4.6 mph - N/A   Clear
9:52 PM 39.0 °F 35.7 °F 33.1 °F 79% 29.94 in 10.0 mi NE 4.6 mph - N/A   Partly Cloudy
10:52 PM 43.0 °F - 36.0 °F 76% 29.96 in 10.0 mi Calm Calm - N/A   Overcast
11:52 PM 44.1 °F - 35.1 °F 71% 29.97 in 10.0 mi Calm Calm - N/A   Overcast